STARLINK-31951, 59890

Orbit data source: Space-Track

STARLINK-31951, 59890 is a payload satellite owned by SpaceX/Seattle (US) in LEO that was launched on Tue, 28 May 2024 UTC via an FALCON 9 launch vehicle from the Air Force Eastern Test Range (AFETR). Payload-class satellites include a variety of spacecraft equipped with specific instruments for various scientific and technological missions. These include communications satellites like Starlink; space stations such as the ISS; scientific satellites like the Hubble; Earth observation satellites from companies like Planet Labs, Umbra, and HawkEye 360; GPS; miniature CubeSats for education and research; and military/defense satellites.

Loading next visibility...
Identifier
59890, 2024-100F
Orbit
LEO
Last TLE update
6 hours ago
Origin
Manufacturer
SpaceX/Seattle
Mission
Operational spacecraft
Bus & Motor
STARLINK V2M, Unknown motor
Mass
730 kg wet, ~700 kg dry
Launch date (UTC)
2024-05-28 (11 months ago)
Launch vehicle
FALCON 9
Launch site
Air Force Eastern Test Range (AFETR)
Object type
Payload
Rocket body
Debris
Shape & HBR
Unknown
Radar Cross Section
Large (>1 m²)

Expand to show TLE details & history

TLE from 6 hours ago
0 STARLINK-31951
1 59890U 24100F   25129.14828411  .00000664  00000-0  33661-4 0  9995
2 59890  43.0069  45.0727 0001601 239.1959 120.8736 15.27575497 54486
Epoch: 2025-05-09T03:33Z
Definitive object data (Epoch: 2025-05-09T03:33:31.747Z)
Latitude
0.00005°
Longitude
124.48189°
Altitude
483.402 km
Speed
7.625 km/s
True Right ascension
03h 00m 17s
True Declination
0° 00' 00"
Sunlit
Object was in daylight at TLE epoch
Visualization TLE readout
Latitude
-15.11618°
Longitude
-40.09541°
Altitude
485.144 km
Speed
7.624 km/s
Apparent Right ascension
13h 27m 15s
Apparent Declination
-66° 23' 00"
Sunlit
Object is in full shadow
Visualization observer readout
Local Sidereal Time
17:18:09
Azimuth
201.961° SSW
Elevation
-25.078°
Doppler factor
1
Orbital elements
Apogee altitude
486.105 km
Perigee altitude
483.908 km
Semi-major axis
6,863.144 km
Eccentricity
0.0001601
Inclination
43.0069°
RAAN
45.0727°
Arg. of periapsis
239.1959°
True anomaly
120.88934°
Mean anomaly
120.8736°
Eccentric anomaly
120.88147°
Mean motion
3.81732 °/min
BSTAR
0.000033661
Orbital period
94.31 mins
Loading maneuver chart data...
Loading SW <> Apogee altitude chart data...
Loading historical data...
Loading historical data...
Loading historical data...
Loading historical data...
Loading historical data...
Loading historical data...
Loading historical data...

STARLINK-31951 Visibility forecast

Observer location: undefined°, undefined°

Span
Click to sort rows by Start time (UTC) header in descending order
Start Az.
Max El. time (UTC)
Max El. Az.
Max El.
End time (UTC)
End Az.
4 mins2025-05-09 21:00:53.132Z186.036° SSW2025-05-09 21:02:53.132Z145.845° SSE20.214°2025-05-09 21:04:53.132Z105.108° ESE
6 mins2025-05-09 22:38:53.132Z249.29° W2025-05-09 22:41:53.132Z79.284° E43.63°2025-05-09 22:44:53.132Z72.236° E
5 mins2025-05-10 00:18:53.132Z293.957° NW2025-05-10 00:20:53.132Z12.654° NNE37.696°2025-05-10 00:23:53.132Z74.244° E
5 mins2025-05-10 01:57:53.132Z291.929° WNW2025-05-10 01:59:53.132Z28.603° NE44.508°2025-05-10 02:02:53.132Z103.145° ESE
4 mins2025-05-10 03:36:53.132Z254.086° W2025-05-10 03:38:53.132Z202.947° SW24.578°2025-05-10 03:40:53.132Z161.686° S
|